DateTimeUTC,F1_A11,F1_S11,BsB_S11,BsG_S11,BsR_S11,BbsB_S11,BbsG_S11,BbsR_S11,BaB_A11,BaG_A11,BaR_A11,Tu_S11,T_S11,Uu_S11,U_S11,P_S11,T1_A11
2021-01-08T10:00:00Z,00000200,21000000,,,,,,,-000.06,-000.15,-000.15,14.6,22.0,,00.0,0637.6,30.7
2021-01-08T10:01:00Z,00000200,21000000,,,,,,,-000.16,-000.15,-000.06,14.6,21.9,,00.0,0637.6,30.6
2021-01-08T10:02:00Z,00000200,21000000,,,,,,,-000.25,-000.25,0000.00,14.5,21.9,,00.0,0637.6,30.6
2021-01-08T10:03:00Z,00000200,61000000,,,,,,,0000.19,0000.06,0000.06,14.5,21.9,,00.0,0637.6,30.6
2021-01-08T10:04:00Z,00000200,41000000,-000.46,0000.39,0000.03,0000.23,0000.14,0000.11,0000.06,-000.14,0000.21,14.6,21.6,,00.0,0638.4,30.6
2021-01-08T10:05:00Z,00000200,01000000,0000.36,0000.02,0000.21,0000.55,-000.17,-000.05,0000.13,0000.46,-000.16,14.7,21.6,,00.0,0638.5,30.6
2021-01-08T10:06:00Z,00000200,01000000,0000.20,0000.20,0000.11,0000.42,-000.14,0000.33,-000.12,0000.02,0000.00,14.7,21.6,,00.0,0638.5,30.7
2021-01-08T10:07:00Z,00000200,01000000,0001.04,0000.05,0000.04,0000.90,-000.08,0000.15,0000.06,-000.39,0000.44,14.8,21.6,,00.0,0638.5,30.7
2021-01-08T10:08:00Z,00000200,01000000,0000.35,0000.05,0000.21,-000.06,-000.23,0000.05,0000.12,0000.17,-000.21,14.8,21.6,,00.0,0638.5,30.7
2021-01-08T10:09:00Z,00000200,01000000,0000.24,0000.24,0000.38,0000.21,-000.00,0000.13,0000.01,0000.20,0000.00,14.9,21.6,,00.0,0638.5,30.7
2021-01-08T10:10:00Z,00000200,01000000,0000.35,0000.16,0000.03,0000.28,0000.16,0000.11,0000.42,0000.14,0000.12,14.9,21.6,,00.0,0638.6,30.7
2021-01-08T10:11:00Z,00000200,01000000,-000.16,-000.11,0000.13,0000.37,0000.15,0000.19,-000.14,0000.36,0000.05,15.0,21.6,,00.0,0638.6,30.7
2021-01-08T10:12:00Z,00000200,01000000,-000.05,0000.02,0000.06,0000.68,0000.01,0000.11,-000.03,-000.12,-000.03,15.0,21.6,,00.0,0638.6,30.7
2021-01-08T10:13:00Z,00000200,01000000,-000.26,0000.28,0000.31,0000.12,0000.18,0000.20,0000.04,-000.01,0000.21,15.0,21.6,,00.0,0638.6,30.7
2021-01-08T10:14:00Z,00000200,01000000,-000.23,0000.09,0000.13,-000.36,-000.07,0000.29,-000.06,0000.14,0000.09,15.1,21.7,,00.0,0638.7,30.7
2021-01-08T10:15:00Z,00000200,01000000,0000.56,0000.01,0000.24,0000.53,0000.23,0000.21,0000.36,-000.08,-000.21,15.1,21.7,,00.0,0638.7,30.7
2021-01-08T10:16:00Z,00000200,01000000,0000.82,0000.12,0000.20,0000.33,0000.09,0000.39,-000.29,-000.24,-000.14,15.1,21.7,,00.0,0638.7,30.7
2021-01-08T10:17:00Z,00000200,01000000,0000.25,0000.33,0000.10,0000.60,-000.10,0000.01,-000.02,0000.04,0000.11,15.1,21.7,,00.0,0638.7,30.7
2021-01-08T10:18:00Z,00000200,01000000,0000.37,0000.25,0000.16,0000.25,-000.08,0000.04,-000.07,0000.21,-000.25,15.1,21.7,,00.0,0638.7,30.7
2021-01-08T10:19:00Z,00000200,01000000,0000.94,0000.08,0000.24,0000.20,-000.14,0000.08,0000.61,-000.05,0000.63,15.1,21.6,,00.0,0638.6,30.7
2021-01-08T10:20:00Z,00000200,01000000,0000.09,0000.10,0000.09,0000.38,0000.09,0000.07,-000.13,0000.46,-000.11,15.2,21.7,,00.0,0638.6,30.7
2021-01-08T10:21:00Z,00000200,01000000,0000.67,0000.34,0000.22,-000.19,0000.08,0000.25,-000.33,-000.14,0000.05,15.2,21.7,,00.0,0638.6,30.7
2021-01-08T10:22:00Z,00000200,01000000,0000.06,0000.32,-000.02,0000.31,-000.31,0000.16,0000.26,-000.22,-000.13,15.2,21.7,,00.0,0638.5,30.7
2021-01-08T10:23:00Z,00000200,01000000,0000.43,0000.18,0000.26,0000.14,-000.20,0000.24,0000.21,0000.60,0000.26,15.2,21.7,,00.0,0638.5,30.7
2021-01-08T10:24:00Z,00000200,01000000,0000.72,0000.03,0000.31,-000.01,0000.00,0000.21,-000.08,-000.09,-000.14,15.3,21.7,,00.0,0638.5,30.7
2021-01-08T10:25:00Z,00000200,01000000,0000.63,-000.03,0000.23,-000.02,-000.13,-000.05,0000.62,0000.27,0000.59,15.3,21.8,,00.0,0638.5,30.7
2021-01-08T10:26:00Z,00000200,01000000,-000.01,0000.32,0000.32,0000.54,-000.09,0000.06,-000.14,-000.07,-000.24,15.3,21.8,,00.0,0638.5,30.7
2021-01-08T10:27:00Z,00000200,01000000,0000.54,0000.01,0000.04,0000.55,-000.17,0000.00,-000.31,0000.04,-000.21,15.4,21.8,,00.0,0638.5,30.8
2021-01-08T10:28:00Z,00000200,01000000,0000.46,0000.21,0000.19,0000.28,0000.05,0000.10,0000.18,-000.09,0000.09,15.4,21.8,,00.0,0638.5,30.8
2021-01-08T10:29:00Z,00000200,01000000,0000.02,-000.14,0000.16,0000.33,-000.08,0000.33,0000.33,0000.12,-000.02,15.4,21.8,,00.0,0638.5,30.7
2021-01-08T10:30:00Z,00000200,01000000,-000.22,0000.10,0000.16,0000.08,-000.17,0000.30,-000.17,-000.20,0000.18,15.4,21.8,,00.0,0638.5,30.7
2021-01-08T10:31:00Z,00000200,01000000,0000.49,-000.03,0000.16,0000.35,-000.07,0000.12,0000.08,0000.21,-000.11,15.3,21.8,,00.0,0638.4,30.7
2021-01-08T10:32:00Z,00000200,01000000,0000.48,0000.32,0000.30,0000.79,0000.02,0000.31,0000.06,0000.01,-000.17,15.2,21.8,,00.0,0638.5,30.7
2021-01-08T10:33:00Z,00000200,01000000,0000.09,-000.16,0000.17,0000.32,-000.09,-000.23,-000.11,-000.33,0000.44,15.2,21.7,,00.0,0638.5,30.7
2021-01-08T10:34:00Z,00000200,01000000,0000.13,0000.23,0000.26,0000.76,-000.10,0000.33,0000.27,0000.54,-000.07,15.2,21.7,,00.0,0638.4,30.7
2021-01-08T10:35:00Z,00000200,01000000,-000.01,0000.21,0000.02,0000.16,-000.05,-000.05,-000.00,0000.08,0000.26,15.2,21.7,,00.0,0638.5,30.7
2021-01-08T10:36:00Z,00000200,01000000,0000.08,0000.10,0000.06,-000.01,-000.43,0000.40,0000.09,0000.13,0000.04,15.2,21.7,,00.0,0638.5,30.7
2021-01-08T10:37:00Z,00000200,01000000,0000.26,-000.11,0000.21,0000.03,-000.13,0000.31,0000.24,0000.24,0000.19,15.2,21.7,,00.0,0638.5,30.7
2021-01-08T10:38:00Z,00000200,01000000,0000.85,0000.33,0000.18,0000.34,-000.27,0000.14,0000.01,-000.45,-000.21,15.3,21.7,,00.0,0638.4,30.7
2021-01-08T10:39:00Z,00000200,01000000,0000.18,0000.42,-000.15,0000.13,-000.28,0000.26,-000.06,0000.39,-000.11,15.3,21.8,,00.0,0638.5,30.7
2021-01-08T10:40:00Z,00000200,01000000,0000.76,0000.02,0000.48,0000.00,-000.08,0000.16,0000.27,0000.01,0000.15,15.3,21.8,,00.0,0638.4,30.7
2021-01-08T10:41:00Z,00000200,01000000,-000.16,0000.07,0000.17,0000.22,-000.24,0000.23,0000.02,0000.13,0000.16,15.4,21.8,,00.0,0638.5,30.7
2021-01-08T10:42:00Z,00000200,01000000,0000.29,0000.31,0000.23,0000.57,0000.02,0000.12,-000.12,0000.01,-000.22,15.4,21.8,,00.0,0638.5,30.7
2021-01-08T10:43:00Z,00000200,01000000,-000.13,0000.04,0000.26,0001.17,-000.03,0000.06,0000.28,-000.37,0000.27,15.4,21.8,,00.0,0638.5,30.7
2021-01-08T10:44:00Z,00000200,01000000,0000.88,-000.05,0000.19,0000.55,-000.01,0000.18,-000.11,0000.17,0000.07,15.4,21.8,,00.0,0638.5,30.7
2021-01-08T10:45:00Z,00000200,01000000,-000.07,-000.01,-000.06,0000.20,-000.17,0000.24,0000.33,0000.41,0000.13,15.3,21.8,,00.0,0638.4,30.7
2021-01-08T10:46:00Z,00000200,01000000,0000.79,0000.10,-000.03,0000.31,-000.10,0000.18,0000.01,-000.35,-000.04,15.2,21.8,,00.0,0638.4,30.7
2021-01-08T10:47:00Z,00000200,01000000,0000.04,0000.07,-000.00,0001.13,0000.09,0000.33,-000.39,-000.06,-000.12,15.1,21.7,,00.0,0638.4,30.7
2021-01-08T10:48:00Z,00000200,01000000,-000.27,-000.01,0000.31,0000.49,-000.32,-000.05,0000.24,0000.39,0000.00,15.1,21.7,,00.0,0638.4,30.7
2021-01-08T10:49:00Z,00000200,01000000,0000.44,-000.04,0000.30,0000.45,-000.07,0000.21,-000.00,0000.01,0000.09,15.1,21.7,,00.0,0638.4,30.7
2021-01-08T10:50:00Z,00000200,01000000,0000.60,0000.22,0000.28,0000.23,-000.14,0000.16,0000.42,0000.47,0000.06,15.1,21.7,,00.0,0638.4,30.7
2021-01-08T10:51:00Z,00000200,01000000,0000.12,-000.01,0000.38,0000.27,0000.04,0000.20,-000.21,-000.42,-000.09,15.1,21.7,,00.0,0638.4,30.7
2021-01-08T10:52:00Z,00000200,01000000,0001.09,-000.01,0000.02,0000.36,-000.14,0000.54,0000.12,0000.44,0000.47,15.2,21.7,,00.0,0638.5,30.7
2021-01-08T10:53:00Z,00000200,01000000,0000.29,0000.33,0000.35,0000.59,-000.07,0000.35,0000.05,0000.09,-000.12,15.2,21.7,,00.0,0638.5,30.7
2021-01-08T10:54:00Z,00000200,01000000,0000.65,-000.02,0000.34,0000.16,-000.18,0000.18,0000.22,-000.39,0000.05,15.2,21.7,,00.0,0638.5,30.7
2021-01-08T10:55:00Z,00000200,01000000,0000.46,0000.26,0000.13,0000.47,-000.36,0000.11,-000.17,0000.03,-000.14,15.3,21.8,,00.0,0638.5,30.7
2021-01-08T10:56:00Z,00000200,01000000,-000.09,0000.16,0000.18,0000.22,0000.06,-000.05,0000.09,0000.60,0000.11,15.3,21.8,,00.0,0638.6,30.7
2021-01-08T10:57:00Z,00000200,41000000,,,,,,,0000.25,-000.10,0000.33,15.3,21.8,,00.0,0638.7,30.7
2021-01-08T10:58:00Z,00000200,61000000,,,,,,,-000.03,0000.04,-000.05,14.9,22.0,,00.0,0637.7,30.7
2021-01-08T10:59:00Z,00000200,21000000,,,,,,,-000.13,-000.47,-000.23,14.9,22.1,,00.0,0637.7,30.7
